GFSWCAN_500_rhum_231.txt.gz
RH
64 70 80 94 99 100 100 100 84 80 84 80 82 77 63 58 63 48 41 45 49 41 30 28 21 19 17 56 98 81 83 92 100 97 97 97 97 98 96 100 98 99 99 95 100 99 93 92 96 99 98 94 94 98
97 97 78 73 77 88 92 88 78 69 72 64 63 76 84 78 69 59 52 54 56 41 24 23 26 19 19 23 61 87 72 75 97 99 95 98 97 98 99 92 99 95 100 100 100 99 97 95 98 99 100 100 100 98
56 86 90 91 89 78 76 80 80 76 68 60 53 52 56 54 60 69 64 58 40 22 22 21 19 15 21 96 66 50 76 88 97 99 99 98 98 98 94 86 98 92 99 94 100 100 98 97 97 100 100 99 84 33
75 65 44 40 52 86 92 94 76 65 60 60 59 53 49 48 43 38 39 36 32 30 26 21 17 15 45 97 61 100 97 99 99 99 99 98 96 94 86 92 97 100 100 100 100 98 99 99 98 99 93 47 13 6
57 44 59 63 48 81 100 100 100 100 100 95 93 82 67 53 47 40 37 33 33 34 26 20 19 16 69 76 100 100 98 99 99 99 98 97 96 98 96 99 100 99 100 99 98 99 100 99 97 67 16 6 9 12
99 91 94 68 75 99 100 100 100 100 100 100 88 71 61 63 61 50 46 36 35 34 26 28 18 24 46 78 100 94 97 98 98 98 99 97 97 99 97 98 98 100 98 100 100 100 99 83 17 6 9 13 16 20
64 70 68 76 96 100 89 92 91 97 100 100 100 100 100 100 92 58 44 36 35 31 32 69 31 80 97 99 98 99 99 98 98 98 96 97 99 99 97 96 100 96 97 100 100 93 24 6 8 12 17 20 22 25
80 86 92 100 96 97 100 100 100 100 100 100 100 100 100 100 100 98 49 52 43 41 42 34 30 97 91 96 99 99 98 99 98 98 97 99 100 98 95 94 100 100 100 97 44 7 7 12 16 20 21 24 28 27
100 100 100 100 100 100 100 100 100 100 100 100 100 100 100 100 94 72 49 52 44 35 33 37 90 100 98 99 100 100 99 98 98 98 98 98 97 98 98 100 100 99 55 9 6 10 16 19 21 24 29 29 28 23
100 100 100 100 100 100 100 100 100 100 100 100 100 65 50 31 31 29 30 41 34 27 34 64 94 99 98 99 98 99 99 99 96 97 97 96 96 100 100 100 80 9 5 8 13 18 22 25 29 30 27 27 24 17
100 100 99 96 94 90 88 75 63 71 74 61 54 42 39 33 94 79 33 68 54 62 58 86 96 98 100 99 99 100 98 98 97 98 99 98 100 100 91 24 6 6 10 16 22 27 29 27 25 25 26 24 18 14
94 69 71 64 67 60 56 51 57 70 51 41 57 79 89 100 100 100 98 92 90 86 78 91 99 100 100 100 99 99 97 96 95 99 100 100 94 47 9 5 8 14 21 26 30 29 27 27 27 28 26 20 15 12
71 63 58 52 46 41 42 54 51 40 70 100 100 100 100 99 100 84 67 77 67 65 78 95 98 100 98 99 98 98 94 100 100 100 100 62 17 4 6 14 19 26 30 31 31 31 31 31 32 30 24 18 14 11
56 52 54 55 40 32 39 70 97 100 100 100 100 100 95 79 69 64 72 69 69 95 100 100 99 99 99 99 97 92 99 100 100 92 14 5 6 11 18 22 28 31 32 34 35 36 36 36 34 29 23 17 14 10
68 60 47 41 51 86 94 100 100 100 98 96 99 98 87 75 71 64 66 75 97 98 98 98 99 100 99 100 100 100 100 91 27 5 5 11 15 18 24 29 33 34 36 39 41 40 40 37 34 29 22 17 14 11
35 44 93 100 100 100 100 97 98 100 100 98 97 96 92 76 68 92 97 97 99 98 99 98 98 99 100 100 100 97 38 6 5 9 14 16 21 24 28 33 36 40 45 46 44 43 41 38 36 29 22 18 15 12
100 100 100 100 100 100 100 100 100 100 100 99 99 78 75 78 90 99 100 94 100 99 98 98 92 100 100 91 38 7 4 7 12 15 19 21 27 31 35 40 45 51 52 48 47 47 43 42 38 30 23 19 16 13
100 99 100 100 100 98 100 100 100 100 100 100 99 64 86 100 97 98 96 97 97 100 100 100 93 61 25 6 5 6 10 14 19 20 23 30 35 38 44 50 55 56 53 48 50 51 48 46 40 32 25 21 18 16
100 100 98 100 100 100 100 100 100 100 100 100 100 100 98 96 96 99 100 100 91 84 77 52 21 6 4 6 10 14 18 21 24 26 29 35 43 52 56 59 60 56 54 51 52 54 48 48 43 36 29 24 21 19
98 97 98 98 100 100 100 100 100 100 100 100 100 99 99 99 85 73 74 67 49 26 11 5 5 7 10 14 17 22 25 27 31 35 41 47 51 56 60 59 58 56 53 53 53 53 50 51 48 41 34 28 25 24
100 100 100 100 100 100 100 100 100 100 97 94 88 81 70 56 47 38 21 11 6 4 4 7 10 14 18 22 27 27 30 34 38 44 50 53 55 60 60 58 57 58 54 55 56 56 52 55 54 48 40 33 30 29
100 100 100 100 100 100 100 100 95 68 50 43 45 39 33 26 16 8 5 4 5 8 10 14 18 21 27 29 29 34 39 41 47 51 53 57 61 60 57 59 61 59 54 58 58 55 55 58 61 58 48 40 36 36
100 100 99 98 98 98 99 95 77 50 37 28 22 14 11 7 5 5 7 9 12 15 18 22 27 32 33 34 39 44 47 51 55 56 59 63 62 59 60 62 61 60 57 56 58 57 60 64 69 68 61 52 46 44
98 85 96 92 84 84 67 39 26 16 12 10 8 5 5 6 9 10 13 15 18 22 27 30 34 38 41 45 50 50 50 55 61 64 66 63 62 61 61 63 62 60 57 57 60 62 64 70 76 78 73 69 62 57
81 77 70 45 32 23 20 17 12 9 7 6 6 7 9 11 13 15 18 22 27 30 35 40 44 49 56 56 52 56 61 63 67 63 62 63 61 65 66 63 61 58 56 60 67 67 67 73 79 86 85 80 77 72
30 25 21 15 12 9 8 7 6 7 7 9 10 11 13 16 18 22 27 30 35 40 45 53 60 62 59 57 62 69 70 70 64 59 62 61 60 63 62 59 58 58 56 60 69 70 71 78 83 89 93 91 89 84
12 10 9 8 7 6 7 7 8 10 11 12 14 15 19 22 26 31 36 42 47 51 56 63 65 66 70 70 67 72 70 68 62 57 57 56 57 59 59 60 58 55 57 62 67 70 73 79 82 89 94 96 96 94
9 8 8 7 8 9 10 11 12 13 14 17 19 23 28 34 40 43 47 53 57 59 64 71 75 74 66 66 66 61 62 62 59 54 53 52 54 55 57 60 58 57 60 65 68 72 76 80 83 88 94 97 97 97
9 9 9 10 11 12 13 14 15 18 21 25 30 35 38 41 42 44 49 56 64 74 75 76 74 67 61 53 52 57 55 52 50 49 50 50 51 56 56 56 55 56 62 68 70 74 77 83 84 89 93 96 98 100
12 13 13 14 14 16 18 20 22 26 31 32 33 36 41 48 57 63 71 74 74 73 73 66 56 52 51 49 47 45 44 46 48 48 48 49 52 58 59 55 55 58 65 70 74 79 81 86 86 88 92 95 97 98
17 17 18 18 20 22 25 28 29 32 41 50 57 64 66 71 78 79 74 71 68 63 57 50 48 51 51 47 44 43 44 46 45 47 48 52 55 58 58 56 58 60 66 73 78 82 83 86 87 89 90 92 94 98
22 24 25 27 28 32 40 51 60 67 71 73 75 76 76 79 78 71 66 63 61 56 51 51 51 50 50 47 46 44 44 45 45 46 48 54 58 58 58 59 59 60 67 77 82 85 87 91 92 93 94 95 97 98
36 40 51 59 65 68 70 73 74 76 76 76 72 69 68 67 67 65 60 59 58 55 54 54 53 53 53 52 50 49 48 46 45 47 53 58 60 61 63 61 60 62 68 76 83 87 89 92 93 93 95 96 98 98

GFSWCAN_500_rhum_234.txt.gz
RH
100 100 98 91 69 42 26 24 35 41 41 41 44 38 34 30 22 23 24 19 21 16 12 11 11 12 16 18 17 16 15 11 14 56 57 35 57 60 88 96 95 98 100 100 100 99 83 82 94 100 99 95 98 98
57 98 100 100 100 97 84 61 43 42 48 44 33 26 23 26 40 33 20 29 36 22 11 11 11 11 19 21 25 14 10 13 36 100 92 82 76 95 100 97 100 96 100 100 100 95 92 95 100 97 97 100 98 97
92 71 100 100 100 100 100 100 97 91 89 92 90 86 83 72 83 46 34 49 55 30 14 11 12 21 25 27 27 18 15 21 28 35 64 55 80 98 98 90 96 97 100 99 99 99 100 95 96 96 100 97 100 99
54 98 100 99 100 100 100 100 100 100 100 100 100 100 99 99 97 72 51 51 63 53 32 21 23 32 29 29 27 25 25 26 49 60 88 99 98 99 97 98 98 99 98 97 96 98 99 97 98 100 100 100 85 34
67 58 81 100 100 100 100 100 100 100 100 100 100 100 100 100 100 92 83 89 81 60 43 39 38 36 34 30 23 27 28 20 42 57 99 95 97 100 96 97 94 100 100 100 98 100 98 99 100 100 95 56 10 13
72 73 62 90 100 100 100 100 100 100 100 100 100 99 91 100 100 97 100 100 80 63 50 44 42 45 38 22 20 22 17 15 15 57 100 92 93 100 97 93 90 91 96 97 100 100 100 100 98 78 16 10 16 18
100 96 74 96 100 100 100 100 100 100 100 100 100 97 86 92 88 82 71 74 80 76 65 62 57 44 26 22 24 21 18 17 30 97 96 100 99 100 96 96 94 98 100 100 99 99 98 94 37 9 15 19 20 21
93 90 88 82 87 99 100 100 100 100 100 99 100 100 100 100 95 76 58 62 70 55 53 55 51 37 30 29 28 24 19 19 49 94 98 97 100 99 92 100 99 99 100 100 97 98 74 12 11 18 20 21 22 23
65 62 54 60 50 58 100 100 100 100 100 99 100 100 100 100 100 83 68 61 54 50 42 45 45 41 41 32 26 23 19 19 57 93 98 100 98 91 93 100 98 100 100 100 92 26 7 14 18 20 23 24 26 28
99 99 83 76 92 100 100 100 100 100 100 100 100 100 100 73 77 71 72 68 63 48 39 33 30 28 30 27 20 22 30 45 96 98 99 96 92 98 99 100 99 99 92 62 6 9 16 19 23 26 28 30 32 30
91 96 100 99 95 100 100 100 98 100 100 100 99 100 100 100 100 100 100 100 96 49 36 29 26 22 22 18 23 38 62 96 95 86 100 92 97 100 100 99 96 79 17 6 13 18 20 26 30 33 35 35 34 31
95 94 100 100 100 100 100 97 100 99 92 89 82 79 80 100 100 100 94 89 89 82 36 28 20 16 17 17 19 73 98 96 93 96 98 93 100 99 99 89 43 6 8 15 17 23 29 34 37 40 39 35 35 28
100 100 100 100 94 94 95 100 96 88 86 93 99 95 99 97 98 77 79 64 47 37 24 20 18 15 16 31 77 100 100 96 99 98 93 100 99 92 62 14 5 10 16 20 28 31 38 41 43 44 38 37 34 27
94 92 91 95 99 100 100 100 100 100 100 98 87 89 69 53 60 63 54 45 29 28 27 25 26 45 88 94 97 100 99 98 98 98 100 98 78 26 5 7 11 16 25 31 36 41 44 45 46 44 40 38 34 28
80 92 92 81 80 100 100 100 81 62 60 55 59 52 44 59 75 79 48 27 28 40 29 32 55 87 100 100 99 99 100 98 99 99 96 56 11 6 9 13 22 31 36 40 42 45 46 46 45 42 39 39 36 30
56 57 65 98 100 100 98 90 100 100 100 100 100 97 97 98 100 78 39 44 56 68 84 94 98 98 98 100 100 100 98 98 100 87 29 6 7 12 18 28 36 38 40 42 45 47 48 43 41 41 41 44 40 33
52 38 36 68 73 71 84 97 100 100 100 100 100 93 74 80 98 98 80 97 100 100 99 100 100 100 99 99 99 96 99 100 72 10 6 10 15 27 32 36 38 40 41 43 48 49 44 40 42 43 48 51 45 38
58 49 71 100 100 100 100 100 100 100 100 100 97 93 89 87 94 100 100 100 99 98 100 100 99 99 99 99 100 99 80 23 6 8 13 22 31 34 36 38 40 40 42 47 49 42 40 42 47 48 54 56 52 44
99 100 100 100 100 100 100 100 100 100 100 100 100 100 100 100 99 100 100 100 100 100 100 100 100 100 100 88 51 22 6 6 12 18 27 34 36 35 37 39 36 39 46 49 45 41 41 47 50 53 60 63 59 52
100 99 99 97 96 99 100 100 97 94 96 98 100 100 100 100 100 100 100 100 100 100 100 100 97 63 26 13 6 7 12 17 26 33 38 37 34 38 37 33 38 46 48 47 43 42 45 52 55 58 64 66 64 61
100 99 99 99 100 100 100 100 99 100 100 100 99 100 100 100 100 100 100 100 99 96 76 52 29 12 5 7 11 16 24 32 38 41 37 37 40 37 32 39 45 49 48 44 43 44 49 58 58 60 64 66 68 70
100 100 100 100 100 100 100 100 100 100 97 97 100 100 100 100 100 100 98 87 46 22 10 7 5 7 12 16 21 30 36 41 40 40 42 44 41 36 39 44 46 44 44 46 46 45 52 60 60 61 66 67 70 75
100 100 100 100 100 99 100 100 100 99 100 100 100 100 98 86 60 45 29 20 10 6 5 7 11 14 20 28 35 40 45 44 42 43 46 46 40 36 41 44 43 41 44 43 45 47 54 60 60 60 65 68 71 79
100 100 100 100 99 99 100 98 98 97 89 67 50 43 33 21 13 9 6 5 5 7 10 14 20 28 34 41 46 50 47 44 46 51 49 40 35 39 41 41 41 40 41 45 48 50 55 60 61 61 64 69 74 81
100 100 100 100 100 90 65 54 41 32 20 19 12 10 9 7 5 5 6 8 12 15 19 26 33 41 48 53 54 51 52 54 53 50 44 40 40 38 37 42 42 44 46 47 48 52 56 61 61 63 65 68 74 83
98 96 94 97 85 56 43 29 18 11 9 8 7 6 5 6 7 10 12 16 19 25 31 38 50 58 58 60 61 61 61 53 47 41 39 43 44 38 38 41 43 47 45 45 50 55 58 60 62 63 66 70 75 81
80 66 58 58 50 37 25 17 12 10 8 6 6 7 9 10 12 15 18 22 27 36 46 54 60 64 66 65 66 62 48 38 38 37 39 42 40 39 40 42 43 44 45 48 50 54 58 61 65 66 68 73 76 80
32 31 22 18 15 12 10 10 8 6 6 7 9 10 12 14 17 21 26 34 44 50 57 63 65 65 71 75 67 48 38 36 36 39 41 41 41 42 44 45 44 46 47 49 48 50 56 60 64 67 70 74 77 81
13 12 11 10 9 8 7 7 8 9 10 11 13 15 18 22 26 31 40 47 51 55 57 62 70 73 71 64 53 46 41 38 40 42 42 43 43 44 43 45 48 47 48 49 48 49 51 57 61 66 71 76 78 82
11 10 9 8 7 8 9 11 13 14 14 16 18 22 26 32 38 42 42 44 47 58 70 75 72 67 60 50 44 44 44 44 44 44 42 43 43 41 43 46 50 51 53 54 52 51 52 57 61 67 73 78 79 81
10 9 8 9 11 12 13 14 14 15 19 22 26 33 34 36 39 46 55 62 70 74 69 66 63 58 48 46 46 47 48 48 47 46 44 44 43 41 41 47 53 54 57 59 58 56 56 58 62 67 76 82 82 83
12 12 12 13 14 15 16 18 20 22 27 30 31 37 46 58 63 65 69 75 77 72 66 62 60 52 51 50 49 50 52 52 51 49 48 48 46 43 43 48 55 60 65 68 66 62 60 60 64 70 78 84 87 91
16 16 17 18 18 20 22 26 28 31 38 47 57 65 69 72 74 74 70 71 69 67 63 60 57 55 54 52 51 52 54 54 53 52 52 51 48 48 51 56 63 70 74 76 75 69 65 64 68 75 81 86 89 91

GFSWCAN_500_rhum_240.txt.gz
RH
56 53 39 20 22 21 16 15 15 17 23 30 41 51 61 61 63 70 68 69 79 81 76 75 78 61 46 36 33 30 26 22 21 20 17 16 14 15 14 12 12 12 16 38 46 42 39 83 98 100 100 92 100 98
17 51 52 50 43 18 18 20 16 14 17 21 27 34 40 49 55 62 74 78 82 82 75 67 62 58 48 38 36 32 27 23 23 21 18 16 14 13 12 11 14 14 37 56 62 64 92 100 98 100 100 96 94 100
25 18 57 70 46 50 40 20 20 19 17 16 19 24 31 38 42 43 47 55 58 63 62 56 50 48 48 50 45 42 32 28 20 21 20 16 16 14 13 11 13 12 32 42 67 96 100 97 100 100 99 100 100 99
48 50 51 71 92 50 40 53 47 23 20 20 18 22 29 35 44 45 38 39 47 50 50 48 44 42 42 43 43 38 31 26 20 19 19 16 16 16 15 13 13 15 22 66 91 100 94 100 100 100 100 97 95 100
69 78 80 96 99 92 69 40 42 57 45 32 33 29 26 32 40 52 54 48 50 53 48 43 43 43 43 41 40 38 33 26 22 19 18 16 14 17 14 11 10 12 42 79 83 100 100 99 100 100 95 93 99 100
77 84 85 100 100 100 94 86 53 35 52 64 50 41 45 41 56 78 86 72 71 61 49 48 43 40 42 41 40 36 32 27 23 19 17 16 15 20 12 10 10 14 26 51 86 95 97 100 100 96 93 99 99 84
94 88 81 84 86 93 88 96 90 55 32 61 82 76 79 72 76 80 71 44 57 73 62 52 42 41 41 41 40 37 31 26 25 21 17 15 13 14 11 11 10 22 19 29 48 72 100 98 92 94 98 97 51 10
82 91 94 84 80 72 100 100 100 89 35 37 45 47 56 61 59 72 73 64 63 60 48 49 45 39 39 38 39 36 34 31 24 20 16 13 13 13 9 13 20 17 20 27 31 77 96 97 98 97 96 30 10 18
100 100 92 92 94 72 100 100 100 100 86 85 95 100 100 100 100 58 59 58 59 77 52 42 42 40 45 44 43 45 41 31 22 18 13 13 13 10 16 17 19 21 22 29 47 83 96 96 96 91 15 11 20 22
95 95 85 94 100 100 100 100 100 100 100 100 100 100 100 94 83 60 80 100 100 100 98 54 41 43 49 63 65 56 55 41 20 13 12 13 11 16 17 18 19 24 32 73 81 91 96 99 66 8 14 19 22 27
99 100 71 100 100 100 100 100 100 100 100 100 99 100 85 91 100 100 100 100 100 99 81 64 58 57 74 73 88 73 52 32 15 14 25 18 13 17 22 26 34 54 72 82 93 99 98 35 8 15 18 23 24 17
88 76 64 100 100 100 100 100 100 100 96 92 86 94 99 100 100 100 100 100 93 72 58 54 64 77 84 77 74 74 48 34 28 26 20 13 14 20 26 27 63 78 85 98 99 94 14 9 17 18 24 22 16 17
100 89 71 100 94 100 100 100 100 100 100 100 100 100 100 100 100 100 90 70 58 46 50 59 72 77 83 80 66 62 51 38 29 22 16 13 20 26 31 71 82 94 99 100 53 7 12 18 19 24 19 15 17 23
89 88 81 100 98 100 100 100 100 100 100 100 100 100 100 97 79 59 45 44 45 50 60 71 80 86 86 81 62 51 41 34 29 22 14 22 19 29 86 92 98 100 96 19 8 15 20 20 24 16 15 18 22 27
75 70 90 100 99 100 100 100 100 100 100 100 100 100 89 70 61 55 48 50 58 63 75 82 86 80 81 75 67 53 43 37 26 18 19 19 53 97 95 96 99 93 16 9 17 21 22 22 16 16 18 22 26 28
97 100 100 98 100 100 100 100 100 100 100 100 93 90 73 72 60 57 50 52 59 63 66 71 67 54 46 43 35 33 30 23 18 15 19 65 84 93 99 100 78 9 12 18 22 26 21 16 16 18 21 24 26 27
98 100 100 98 100 100 100 100 100 100 100 98 97 84 72 68 71 68 70 71 67 63 54 51 49 47 35 31 29 24 20 21 20 16 45 72 97 100 95 20 8 14 20 24 30 22 17 17 18 20 23 26 26 28
100 60 81 93 94 97 89 90 85 81 81 72 73 68 78 72 62 58 56 52 40 36 32 31 30 30 31 28 25 24 17 14 17 27 81 97 100 78 10 10 17 23 26 28 22 18 18 18 20 22 25 25 27 29
93 82 87 100 91 76 96 88 60 52 55 70 66 62 64 66 68 72 65 52 60 62 44 28 22 18 17 19 17 13 11 23 74 86 98 100 63 8 12 18 24 29 28 21 20 20 19 19 21 24 24 27 30 29
100 99 100 100 100 100 100 98 93 86 73 73 74 78 77 72 63 64 66 66 71 67 59 45 27 21 22 23 18 45 85 98 100 100 100 90 14 13 20 27 32 30 23 21 22 20 20 21 22 23 26 30 31 30
100 100 100 100 100 100 86 86 91 99 98 93 91 93 92 96 99 99 100 100 100 58 45 59 83 94 87 94 100 100 100 100 100 98 40 10 15 24 30 34 33 30 24 23 21 21 21 22 22 26 29 32 33 33
95 94 95 98 98 97 99 99 100 100 100 100 100 100 100 100 100 100 100 100 100 100 100 100 100 100 100 100 100 100 100 94 44 10 13 21 28 34 37 38 35 28 25 23 22 22 22 23 24 28 32 35 37 36
100 100 100 100 100 100 100 100 100 100 100 100 100 100 100 100 100 100 100 100 100 100 100 100 100 99 100 98 82 26 9 8 12 20 27 32 37 39 42 39 29 26 25 23 22 22 23 25 26 31 35 38 40 41
99 100 100 99 99 100 100 100 99 100 100 100 100 100 100 100 100 100 100 100 100 99 100 94 94 97 28 8 7 10 17 22 29 35 38 42 44 45 41 31 30 28 26 25 24 24 25 27 29 34 39 42 45 46
100 99 100 100 100 100 100 100 100 100 100 100 100 100 100 100 100 100 100 96 88 91 87 94 47 8 8 11 16 20 26 34 39 43 47 50 51 45 35 32 30 29 28 27 26 26 27 30 33 37 41 45 50 52
100 100 100 100 100 100 100 100 100 100 100 100 100 100 96 100 100 100 100 96 95 86 36 10 7 8 12 16 23 30 38 44 49 56 59 55 49 39 34 32 32 31 31 30 29 30 31 34 36 39 43 47 54 58
100 100 100 100 100 100 100 100 100 100 100 100 100 100 99 100 100 87 47 20 10 7 6 8 12 16 21 28 36 42 49 56 64 66 61 57 47 36 34 35 35 35 34 34 33 34 36 37 39 42 46 50 58 64
100 100 100 100 100 100 100 100 99 93 97 99 97 60 24 10 8 8 8 7 6 7 11 16 21 27 33 39 48 57 64 68 68 69 68 57 40 34 36 39 39 39 39 38 37 38 40 40 43 46 50 56 62 67
100 100 100 100 98 96 75 49 22 12 10 9 9 9 9 8 8 7 8 11 14 18 21 25 30 34 42 51 58 65 69 72 75 74 65 48 40 40 42 44 45 44 42 42 42 43 44 46 47 51 54 59 64 72
100 100 100 99 98 94 61 21 11 9 10 10 9 8 8 8 10 12 15 17 20 22 26 30 36 44 51 58 62 64 68 75 76 69 50 45 46 45 48 49 48 48 47 46 48 49 50 51 52 55 59 64 70 79
100 100 99 81 24 13 10 10 10 9 7 7 7 8 9 11 13 16 18 19 22 26 30 36 41 48 53 54 54 64 80 81 72 56 51 50 48 50 51 51 52 52 52 52 53 55 56 57 58 60 64 70 74 80
96 88 59 26 14 12 11 11 10 8 8 9 10 11 12 13 15 16 19 22 25 28 33 40 44 45 44 47 65 83 81 76 67 58 56 54 53 54 55 58 58 58 58 58 59 60 60 61 62 64 68 73 78 85
16 16 14 12 12 11 11 10 9 8 8 10 12 13 15 16 18 20 22 25 29 35 38 39 42 51 69 84 91 91 83 75 71 63 61 61 60 62 66 66 65 64 64 64 64 63 63 63 64 67 73 76 79 88

GFSWCAN_500_rhum_246.txt.gz
RH
88 95 95 95 76 86 95 100 100 100 100 100 100 100 100 100 100 98 100 100 99 98 99 90 87 84 82 79 68 59 53 47 47 45 42 38 34 30 27 27 27 21 20 21 22 22 20 18 16 15 15 14 25 53
85 60 96 99 95 92 87 100 100 100 100 100 100 100 100 100 100 100 100 100 100 100 96 98 99 96 92 90 87 72 57 48 43 42 39 37 35 32 30 28 27 26 29 33 34 25 18 16 17 16 15 20 31 46
100 93 62 49 83 90 58 100 100 100 100 100 100 100 100 100 100 99 100 100 100 98 100 100 98 100 100 98 99 89 70 54 48 44 40 37 38 37 38 34 33 38 45 43 33 29 23 20 19 17 15 17 18 22
100 100 100 100 79 55 60 94 100 100 100 100 100 100 100 100 100 99 99 100 100 99 100 100 99 99 100 100 100 98 86 68 54 48 46 46 49 51 50 49 49 46 41 42 43 24 19 19 19 17 16 17 18 15
100 100 100 100 95 81 74 95 100 100 100 100 100 100 100 100 100 100 100 100 100 100 96 94 100 100 98 100 100 99 94 80 65 54 58 75 78 72 64 53 48 52 63 54 30 22 20 18 18 16 16 18 15 15
100 100 100 100 100 80 65 56 73 90 100 100 100 100 100 100 100 100 99 100 91 97 98 93 99 98 100 100 100 99 99 95 87 88 84 73 69 70 57 48 52 54 52 38 26 22 20 18 17 17 19 16 14 18
54 66 58 50 65 90 86 56 45 60 79 84 99 100 100 100 100 96 68 59 82 92 96 90 85 88 93 92 95 98 97 97 99 91 79 71 72 67 48 39 48 44 44 32 25 22 21 17 16 19 20 15 18 53
68 58 55 52 43 42 42 58 66 54 51 62 81 86 95 100 100 94 64 73 98 100 100 100 97 78 80 81 84 84 88 92 91 86 78 78 69 64 39 38 39 44 41 34 28 25 22 18 15 23 20 13 24 67
85 81 59 64 48 44 41 26 36 67 69 71 82 96 100 100 98 66 57 84 100 94 99 81 79 69 75 72 75 78 76 76 74 73 73 70 58 43 40 38 36 42 39 37 30 23 19 16 22 22 19 18 49 90
87 92 71 76 57 49 43 40 96 83 74 89 100 100 100 83 66 72 81 94 100 88 85 79 67 55 54 62 62 67 66 66 64 60 58 50 41 42 40 38 36 38 37 32 24 19 17 23 24 20 20 57 92 98
76 86 76 80 63 55 54 68 100 100 100 100 100 98 88 87 95 100 100 93 96 100 86 55 46 45 49 54 59 61 58 55 50 47 48 34 23 28 41 38 39 38 34 28 20 17 23 25 22 20 39 88 99 24
76 80 81 76 54 61 74 90 100 100 100 92 82 70 98 100 100 100 100 100 100 100 70 60 46 47 52 61 73 60 59 53 38 32 34 20 20 37 42 42 38 33 27 20 16 26 29 23 22 30 53 100 47 16
88 57 59 78 84 93 97 100 100 100 100 100 100 100 94 100 100 92 98 94 96 94 69 37 35 52 72 63 59 73 61 51 40 34 22 14 39 47 42 38 34 29 20 18 32 32 24 24 28 30 89 82 15 19
96 72 66 82 96 98 100 100 100 100 100 100 100 100 99 100 79 58 54 57 57 68 74 45 49 58 60 61 60 50 57 56 49 36 20 43 47 40 38 36 28 19 22 36 36 28 25 27 28 67 92 15 21 18
98 88 93 95 94 92 100 100 96 100 100 100 99 97 75 62 60 63 72 64 58 61 65 63 65 68 64 67 78 83 78 54 33 32 57 51 46 42 39 28 24 37 42 40 31 26 24 31 85 95 18 21 20 18
100 100 99 94 91 97 100 100 100 100 100 100 89 89 76 79 72 76 68 66 73 83 96 98 99 100 98 98 91 74 57 38 46 78 68 65 58 51 43 42 48 46 38 31 26 26 48 98 89 18 21 21 20 16
100 92 100 92 73 87 100 100 100 100 99 90 91 80 100 96 84 81 76 71 78 82 91 95 85 75 85 82 67 57 59 72 68 65 73 75 60 57 55 51 40 28 22 32 63 87 100 53 13 24 22 20 18 17
77 98 92 100 88 99 100 100 99 100 100 96 100 100 100 100 88 87 92 96 90 90 90 87 82 82 75 64 64 80 85 79 83 81 80 74 64 58 50 35 28 29 40 70 99 97 26 15 26 24 21 20 18 18
81 98 100 100 96 86 100 100 100 100 100 92 95 100 100 100 99 99 100 100 100 99 100 96 86 77 80 76 84 93 91 89 82 78 74 63 51 43 28 26 27 33 57 93 87 14 17 27 27 23 21 20 19 19
100 100 100 100 100 100 100 100 90 97 100 98 95 100 100 100 100 100 100 100 100 100 89 77 82 80 93 93 92 91 78 67 63 56 49 41 32 26 22 19 20 44 92 87 14 20 27 29 27 23 22 20 19 20
100 100 100 100 100 99 100 100 100 100 100 98 94 98 100 99 98 100 100 100 100 97 86 79 84 85 78 76 75 62 52 47 44 40 34 27 22 15 14 25 91 99 55 12 20 27 32 30 25 24 22 20 20 23
100 100 100 100 98 91 100 89 98 99 98 87 84 80 89 97 100 100 100 100 97 87 83 86 81 70 64 56 47 42 37 32 29 26 22 16 14 18 89 100 100 70 14 20 28 35 34 27 25 24 23 22 22 26
100 100 100 100 100 94 92 87 78 88 94 90 99 100 99 91 91 89 87 79 70 72 70 63 56 51 46 42 35 30 26 24 20 16 17 19 67 100 100 100 81 16 23 34 39 36 29 27 26 26 25 24 26 30
100 94 81 90 98 92 96 89 73 73 76 90 94 86 79 72 74 73 58 55 58 57 51 45 44 43 37 27 20 19 19 15 15 35 45 97 100 100 73 21 23 32 40 43 39 33 31 30 28 29 28 28 31 36
82 97 87 87 75 79 64 56 49 53 58 60 68 66 68 71 65 61 55 38 37 38 39 34 28 26 20 15 13 12 15 44 70 96 100 100 72 22 30 43 42 46 49 42 35 34 34 33 32 32 31 32 36 40
57 47 51 45 46 49 44 46 48 50 49 52 52 50 49 48 48 41 39 48 58 67 85 72 47 25 14 14 28 53 86 100 100 100 64 23 24 40 52 54 54 54 50 41 37 36 36 36 36 34 33 37 42 46
91 94 94 88 73 71 66 70 69 72 77 82 86 90 87 80 69 62 73 82 77 72 58 46 32 43 83 99 97 98 100 99 54 20 29 40 51 56 57 60 62 60 50 41 39 38 39 40 39 38 39 43 48 51
98 100 100 100 100 100 100 100 100 99 99 99 100 98 94 96 99 100 100 91 84 79 78 82 94 100 100 100 83 52 23 20 33 40 44 51 60 69 74 72 72 68 56 46 42 41 41 43 44 43 44 50 54 55
100 100 100 100 100 98 94 94 94 96 100 100 100 100 100 100 99 97 98 98 97 97 100 100 98 70 22 10 13 22 28 32 37 48 62 71 76 77 75 76 78 74 64 54 50 46 47 49 48 48 52 57 60 60
100 100 100 100 100 100 100 100 100 100 100 100 100 100 100 100 100 100 100 100 100 100 89 20 11 16 21 25 30 37 44 51 57 64 69 71 71 71 76 82 84 77 62 56 54 53 54 53 52 55 60 65 68 68
100 100 100 100 100 100 100 100 100 100 100 100 100 100 100 100 100 100 95 80 38 14 9 10 13 17 21 26 31 38 49 56 62 62 61 62 64 74 81 82 83 80 69 61 60 61 61 60 60 63 67 73 78 77
100 100 100 100 100 100 100 100 100 100 100 100 100 100 100 100 63 21 11 8 8 9 12 16 19 24 30 33 35 42 49 53 56 58 52 50 60 78 88 92 91 86 78 72 68 67 68 68 69 72 76 83 85 82
100 100 100 100 100 97 95 94 87 80 80 70 64 45 24 12 9 8 7 8 10 13 16 19 24 26 28 30 36 41 46 50 48 44 45 60 85 96 98 99 98 92 88 88 84 79 77 77 81 83 86 88 89 84

GFSWCAN_500_rhum_249.txt.gz
RH
55 57 61 77 94 85 87 80 88 78 88 87 100 98 100 100 100 100 100 100 98 84 50 43 40 38 38 37 37 36 38 40 48 53 55 52 46 46 44 39 32 27 26 27 30 27 22 23 30 29 30 20 17 17
61 67 70 72 54 77 87 89 75 91 100 100 97 95 100 100 100 100 100 100 100 98 89 70 62 52 48 47 45 43 46 54 59 62 58 47 44 42 37 35 33 30 29 29 27 26 27 33 39 35 28 21 18 18
71 54 52 78 81 56 72 61 93 91 93 100 100 100 100 100 100 100 100 100 99 98 100 100 93 78 79 72 68 68 71 74 76 73 63 52 45 40 38 36 36 34 32 30 31 30 36 41 38 39 28 20 19 18
95 91 79 99 100 88 50 40 76 87 82 100 100 100 100 100 100 100 99 100 100 100 99 100 100 99 99 96 89 86 85 81 86 88 84 71 55 45 41 37 36 36 39 38 38 42 45 46 52 41 24 21 18 17
92 100 94 87 86 92 100 93 62 99 91 91 100 100 100 100 100 100 100 100 100 100 98 100 100 100 100 100 100 100 100 98 97 96 94 82 67 56 51 50 48 47 48 55 63 51 52 58 49 34 25 21 18 16
100 99 100 100 99 83 83 98 100 82 78 75 100 100 100 100 100 100 100 98 98 100 100 100 100 100 100 100 100 100 100 99 100 95 88 83 74 65 54 48 48 59 68 74 60 52 58 51 42 34 25 22 19 16
100 100 100 100 100 100 100 98 100 100 97 100 100 100 100 100 100 98 92 99 100 100 100 100 100 100 100 100 96 96 100 100 99 92 82 80 74 70 58 50 65 66 59 67 78 69 55 57 47 31 26 24 20 16
95 97 100 100 100 100 100 100 94 94 100 100 100 100 100 100 100 97 99 100 100 100 100 100 98 99 98 98 100 100 100 100 100 90 83 79 80 69 50 55 57 60 69 63 57 49 45 44 36 32 27 22 17 16
93 93 100 100 100 100 100 100 100 100 100 100 100 100 100 99 94 92 100 100 100 100 97 91 90 93 99 95 98 100 100 100 95 83 83 90 80 53 49 55 55 68 64 57 49 44 43 39 33 29 24 19 16 16
67 77 84 100 100 100 100 100 100 100 100 100 100 100 90 85 94 100 100 100 100 100 100 89 91 86 86 92 95 95 92 91 82 75 82 67 56 61 58 57 68 70 60 52 44 40 37 34 32 26 19 16 17 18
82 63 75 89 100 93 79 90 100 100 100 100 96 96 86 98 100 100 100 100 100 100 92 74 77 60 73 76 85 90 80 77 69 65 66 48 40 49 57 62 64 57 51 46 41 38 37 34 31 24 16 18 20 21
95 92 90 87 85 90 93 75 69 100 100 88 90 85 100 100 100 100 100 100 100 98 42 49 46 39 51 66 67 62 64 64 46 36 37 26 30 40 51 43 45 46 43 37 36 36 35 30 25 18 14 19 22 20
93 92 94 100 82 100 94 68 77 97 97 98 100 100 100 100 100 100 88 100 76 33 22 40 34 21 31 37 38 48 40 31 34 28 22 17 21 43 30 30 36 34 34 31 31 32 30 27 18 14 18 23 22 23
88 87 95 100 86 90 80 65 99 100 100 100 100 100 100 99 87 80 47 43 26 26 33 59 59 46 47 49 52 36 26 28 22 13 12 26 42 39 39 39 38 35 32 33 34 32 28 23 16 18 24 24 23 70
81 81 100 97 91 83 75 82 100 100 100 100 100 98 88 71 62 65 39 50 45 62 56 66 65 47 38 43 36 27 22 28 10 9 32 71 47 42 38 35 32 30 30 33 33 30 22 19 16 24 26 23 57 98
100 100 100 100 84 89 89 98 100 100 99 100 93 79 79 71 68 66 62 65 54 62 70 75 89 91 60 59 71 62 98 33 19 65 69 49 43 39 40 37 34 34 35 35 30 26 27 25 26 27 24 56 92 28
99 58 67 81 88 100 99 100 100 100 98 100 100 81 92 100 93 80 86 93 90 93 84 95 100 100 100 100 96 75 35 55 82 66 57 41 42 44 42 40 40 44 42 40 42 38 33 30 28 33 78 83 21 28
87 69 71 76 100 100 100 100 98 100 89 95 100 100 87 91 89 77 78 99 97 95 100 91 100 92 83 67 51 44 84 92 76 66 60 63 66 69 66 61 54 47 47 42 34 30 36 52 63 95 60 20 29 28
84 78 83 90 96 93 98 100 100 100 99 100 100 100 100 99 97 100 96 100 100 100 100 100 98 74 66 57 60 94 100 100 95 86 77 76 80 84 73 62 57 51 40 33 31 34 51 79 98 49 21 31 30 24
95 84 83 79 99 100 100 100 100 99 89 83 75 83 86 96 100 99 95 98 99 94 85 79 63 74 72 75 91 100 100 100 94 88 87 85 88 80 73 63 58 40 32 30 28 28 65 95 31 22 33 32 27 23
94 100 100 100 99 100 100 100 100 100 91 89 96 100 95 100 95 100 100 98 86 76 86 81 87 93 96 97 100 99 97 91 93 91 87 83 71 63 53 40 37 32 22 18 21 75 100 36 23 34 35 31 25 23
99 83 72 73 95 100 99 95 93 85 82 91 100 94 92 100 100 100 97 91 98 100 100 100 100 100 100 100 99 98 98 98 97 81 62 52 48 43 37 31 22 17 23 78 100 64 19 25 36 39 34 28 25 24
99 100 99 96 99 90 91 91 83 66 92 100 94 92 91 93 93 95 88 83 85 100 100 100 100 99 98 95 94 95 98 96 67 43 34 32 28 26 25 18 28 57 98 100 57 18 28 41 43 37 31 28 27 27
85 100 100 98 88 79 100 79 75 71 66 85 82 80 89 93 95 94 87 89 100 97 91 83 81 79 77 74 67 62 49 41 32 30 27 21 21 24 43 54 82 100 100 36 22 34 46 49 42 34 32 31 30 29
100 100 100 92 78 70 94 97 87 92 89 90 92 90 93 100 100 95 77 78 77 75 72 69 71 65 57 48 40 35 31 24 23 22 21 20 48 97 100 100 94 46 24 30 45 54 52 47 39 36 35 34 34 35
98 99 100 96 96 78 66 71 79 89 96 94 90 89 100 100 96 65 54 55 60 58 46 44 44 38 33 27 22 19 19 17 17 16 22 41 95 100 94 74 48 40 53 59 59 57 52 43 41 39 38 39 40 41
96 84 84 78 81 81 93 91 86 82 82 81 78 94 93 82 57 38 36 44 45 45 41 38 32 28 26 20 19 21 24 21 19 49 95 100 99 89 54 46 52 61 68 69 66 60 54 50 44 41 42 44 45 46
73 69 81 84 85 85 100 98 88 77 63 53 51 48 46 41 32 35 38 38 36 38 41 43 51 51 52 43 34 28 37 56 89 100 99 59 36 44 47 56 70 78 78 76 73 67 59 51 47 48 49 50 50 51
57 52 51 63 56 52 48 52 50 45 49 53 54 56 56 58 66 63 57 52 59 61 57 58 61 52 41 34 60 100 100 100 98 52 32 36 46 60 73 81 82 79 79 80 80 78 70 61 58 57 55 54 54 58
90 88 80 71 62 52 55 65 75 88 98 100 100 97 96 100 94 87 83 82 92 98 90 78 68 69 88 100 100 100 93 66 41 31 41 54 66 71 75 76 73 75 81 85 86 80 68 61 60 61 61 61 63 66
99 96 95 96 96 96 97 98 99 100 100 100 100 100 100 100 100 99 100 100 100 100 96 97 100 100 94 54 35 24 24 32 40 49 57 64 69 70 69 66 69 76 85 87 86 85 81 76 70 68 68 71 73 76
95 99 98 95 92 90 88 89 95 100 100 100 100 100 100 100 100 100 100 100 100 100 100 100 63 18 13 16 24 30 34 39 49 57 62 65 65 62 52 52 60 82 94 98 98 95 90 87 89 88 82 82 91 100
100 100 100 100 100 100 100 100 100 100 100 100 100 100 100 100 100 100 100 100 100 96 45 13 12 17 22 26 30 34 38 45 51 55 56 57 54 48 45 49 76 96 97 95 98 99 97 95 96 97 99 100 100 100

GFSWCAN_500_rhum_252.txt.gz
RH
100 100 100 97 72 67 77 100 99 100 100 79 59 79 90 100 100 100 100 100 100 96 82 62 36 27 23 20 19 22 22 21 24 21 21 26 30 32 37 44 45 42 43 46 35 28 25 32 30 26 24 26 34 40
100 100 100 100 97 83 72 77 70 87 100 97 100 92 100 94 100 100 100 100 99 100 97 85 52 35 28 25 24 23 24 28 28 30 30 31 32 34 40 45 47 35 38 37 34 31 30 29 28 27 29 33 42 42
92 98 100 100 100 92 78 72 69 79 89 91 87 91 92 100 100 100 100 100 99 98 100 96 72 54 37 31 30 29 32 44 35 34 39 36 37 44 46 50 49 40 39 35 32 33 33 30 31 33 38 46 47 52
52 72 73 76 86 95 99 92 89 75 72 60 64 83 76 99 100 100 100 100 100 100 100 96 98 73 54 44 37 36 36 40 47 47 50 43 43 46 51 52 50 46 41 36 35 38 37 39 45 52 52 52 54 56
42 39 44 43 50 50 52 56 64 80 83 77 64 74 97 100 100 100 100 100 100 100 90 98 100 100 95 78 55 45 44 44 48 58 52 53 60 58 64 60 58 57 51 45 44 48 45 54 73 68 55 52 56 49
57 48 37 39 53 62 71 57 54 49 52 71 80 66 82 100 100 100 95 90 100 100 100 100 100 100 100 100 98 89 71 58 56 60 64 65 70 65 59 51 58 60 58 54 54 50 54 70 66 65 59 55 64 54
71 81 78 83 79 64 62 69 69 73 67 68 82 76 80 98 97 85 83 100 100 100 100 100 100 98 100 100 100 100 99 100 96 88 81 76 72 73 65 56 66 64 62 63 54 59 62 67 57 60 56 51 47 40
82 87 88 92 98 94 80 91 86 74 100 100 90 70 81 92 100 92 93 100 100 100 100 100 96 100 100 100 100 100 100 100 98 100 100 98 94 83 59 58 56 62 72 75 71 88 71 63 58 54 49 45 43 36
92 86 79 87 98 94 94 99 96 100 100 100 100 100 100 98 79 79 100 100 100 100 100 84 89 100 99 100 100 100 100 100 100 98 99 98 93 68 58 64 66 74 85 80 88 80 66 58 53 46 44 40 37 32
95 98 94 99 100 100 100 100 100 97 100 100 100 99 86 78 73 91 100 100 100 100 100 94 99 100 99 100 100 100 100 100 96 93 98 79 62 67 65 63 66 81 77 76 72 68 64 56 47 42 40 37 34 33
100 100 92 98 100 97 100 100 100 100 100 99 92 94 85 76 83 100 100 100 100 100 97 90 90 85 86 93 99 100 96 96 88 77 78 62 50 54 65 76 77 73 69 65 63 59 57 54 48 43 39 38 35 29
99 100 100 93 100 100 100 100 100 100 90 96 96 94 100 100 100 100 100 100 100 100 78 72 76 77 80 86 83 85 85 82 66 60 55 40 39 46 64 66 62 57 58 58 57 49 41 45 40 34 34 34 32 24
68 75 81 94 100 100 100 100 100 99 100 100 100 100 100 99 100 100 95 100 95 83 64 59 62 60 61 67 71 70 64 53 51 40 27 23 25 46 44 36 33 35 34 33 34 31 25 24 26 29 30 31 27 18
61 68 73 77 97 100 100 100 100 100 100 100 100 100 98 100 95 88 69 68 60 59 56 57 53 56 52 62 81 58 52 52 38 26 24 26 36 34 31 28 27 25 21 19 17 15 14 16 20 35 35 29 24 18
81 99 100 96 96 100 100 100 100 100 100 99 100 99 86 86 82 66 63 60 54 55 58 61 84 74 71 86 50 47 33 25 28 25 22 38 28 22 20 20 20 17 15 14 12 11 19 24 26 35 32 27 19 26
87 99 100 100 99 84 98 100 100 99 100 100 94 74 71 75 65 56 53 55 64 59 60 64 64 73 73 45 24 24 28 15 24 44 39 32 31 24 18 16 13 12 12 12 13 26 30 33 36 34 28 25 31 31
100 88 100 100 94 94 100 100 100 96 94 99 85 72 74 55 59 55 50 58 63 57 59 60 78 70 63 59 71 29 25 44 56 58 43 26 22 15 13 12 12 11 14 20 30 34 38 38 31 26 41 40 32 40
99 97 100 98 95 100 100 96 86 87 100 96 99 72 79 86 94 92 80 100 96 75 79 93 92 80 86 80 66 62 65 77 70 59 50 36 27 17 18 25 28 28 40 45 41 41 39 35 41 46 39 43 62 100
92 88 100 100 100 96 95 83 99 100 100 90 87 98 75 87 97 100 100 100 98 100 100 100 100 89 81 67 60 66 90 84 79 72 47 48 44 47 50 56 60 61 54 54 49 41 39 46 38 35 48 87 100 91
100 100 100 94 94 88 75 88 100 100 100 99 84 77 100 99 98 96 100 100 94 97 83 66 55 66 73 80 91 93 94 97 87 70 80 79 77 75 70 70 63 66 63 56 53 52 43 36 31 32 54 100 86 30
100 95 100 100 93 73 60 80 100 100 96 82 73 86 100 99 86 98 100 100 99 76 79 67 70 85 84 100 100 84 90 100 100 88 83 91 88 77 76 78 78 73 68 63 57 44 32 29 30 32 77 78 32 35
78 81 98 100 100 99 95 68 94 95 99 82 87 91 86 96 99 99 96 88 89 83 93 100 100 99 100 100 100 100 94 93 98 90 82 87 89 86 86 84 78 74 66 55 54 35 25 21 55 100 76 31 38 50
72 74 100 100 100 100 100 86 88 88 74 67 74 86 88 85 75 86 93 61 74 100 100 91 96 100 100 100 100 100 100 90 81 77 79 89 96 97 90 64 57 56 45 35 28 20 61 100 98 56 26 41 54 53
84 89 100 100 96 99 100 88 99 100 100 83 84 98 90 85 76 90 94 84 89 96 100 100 100 100 98 100 98 96 90 89 87 93 100 100 87 51 33 31 30 30 27 20 37 95 100 99 36 27 46 59 58 48
100 100 100 100 100 100 100 72 61 74 61 74 99 88 90 77 70 67 65 72 79 85 100 100 100 100 94 95 95 92 96 100 100 100 82 46 37 32 24 22 23 37 39 55 100 100 69 26 34 54 66 66 58 52
100 82 94 100 88 95 96 71 55 47 47 71 88 68 83 89 83 68 69 84 93 100 100 96 93 89 84 82 80 79 78 73 56 46 42 34 24 23 22 70 94 99 98 100 96 50 36 53 66 72 71 65 59 52
100 64 60 62 43 72 100 98 73 70 63 53 61 80 90 88 74 66 68 75 83 90 90 82 71 64 58 55 54 49 46 44 36 28 25 23 17 17 47 96 99 92 79 85 74 58 68 77 80 77 71 67 60 52
82 42 34 36 38 42 48 86 82 78 78 78 82 81 81 71 58 58 66 72 71 71 64 58 50 42 36 30 30 30 27 28 28 26 24 19 45 92 100 91 47 76 88 66 71 80 86 87 85 83 79 71 64 61
99 89 82 79 87 87 63 55 57 62 73 82 80 72 62 51 49 48 46 44 42 40 39 39 35 32 26 25 25 33 46 35 31 33 34 85 100 100 77 70 64 63 72 82 90 88 83 85 90 89 80 71 68 68
100 96 96 96 93 85 81 76 77 82 82 78 70 56 44 37 40 39 37 41 48 46 45 37 40 39 40 43 46 42 27 30 31 66 92 100 84 54 51 52 66 77 85 82 76 77 86 92 94 92 88 83 78 74
70 68 60 55 50 57 59 58 57 54 47 43 43 43 47 53 66 72 71 70 75 86 80 72 66 62 51 50 42 38 56 74 88 96 92 56 38 44 56 66 76 80 75 67 64 68 84 97 100 100 100 99 98 98
87 83 71 64 64 66 74 80 83 67 54 55 61 82 95 96 95 96 88 99 100 92 87 78 73 74 70 68 83 95 98 96 100 55 30 35 48 58 65 72 71 62 55 50 52 69 93 100 100 100 100 100 100 100
94 96 97 96 91 88 87 84 80 80 79 82 89 91 89 94 96 95 100 98 97 95 97 100 92 91 98 98 100 99 75 39 27 31 41 49 55 60 64 62 56 50 45 43 46 77 99 100 100 100 100 100 100 100